Temp
95 96 96 97 96 97 97 96 96 97 97 97 98 100 102 102 100 99 100 96 92 91 92 92 92 92 92 93 94 94 95 94 95 94 93 93 93 93 94 98 98 95 99 99 98 96 94 93 94 93 91 90 92 92 90 89 89 94 92 90 89 88 89
92 95 96 97 97 97 97 96 96 97 97 98 99 97 100 102 101 102 99 97 95 92 93 94 91 93 94 93 96 94 93 95 94 93 96 93 91 92 95 98 98 95 92 95 98 96 94 92 93 93 91 91 94 92 91 90 89 90 92 91 89 86 86
93 94 96 96 97 97 96 98 97 98 97 99 100 100 100 99 103 100 99 99 94 93 94 94 92 95 95 94 95 95 96 97 96 97 97 97 96 94 96 95 96 96 96 97 95 99 99 98 92 93 93 94 97 94 93 91 90 90 88 88 87 88 86
91 93 96 97 98 98 98 98 97 99 100 100 100 101 101 99 103 101 100 97 96 94 93 93 92 96 97 96 97 97 98 97 97 99 99 96 93 98 97 97 95 95 97 97 100 99 101 99 93 91 91 92 91 91 92 90 91 90 89 88 86 86 85
94 96 96 96 98 97 97 96 97 96 99 101 100 100 103 103 103 102 101 100 97 93 95 95 94 95 97 99 100 101 100 101 99 99 96 93 94 95 99 99 100 100 97 99 97 95 93 94 97 92 92 90 91 91 89 90 90 90 88 88 86 87 87
94 94 94 96 97 98 99 99 99 99 98 100 101 101 103 103 103 104 100 96 96 98 95 92 93 93 93 97 100 102 101 100 96 95 93 93 93 97 101 101 101 99 101 100 100 98 95 93 94 93 94 96 95 92 92 91 90 89 89 87 85 85 80
93 93 94 95 98 99 100 99 100 100 100 100 101 101 100 102 102 103 101 96 96 98 95 92 92 92 92 92 94 96 100 103 99 97 94 94 95 96 99 100 100 101 101 97 97 93 94 93 92 93 92 91 90 90 87 86 86 89 87 86 85 76 76
93 91 94 98 100 100 100 99 100 101 101 101 100 100 100 101 101 102 98 97 96 93 92 92 92 91 91 92 93 95 95 94 94 93 93 95 98 99 100 100 99 96 95 98 92 92 93 92 93 93 91 90 90 89 89 87 87 89 87 85 82 77 78
94 93 96 97 98 100 99 99 99 100 97 98 99 98 99 98 98 99 98 97 94 92 92 92 91 91 91 92 92 93 94 93 92 93 93 95 96 99 99 98 96 95 93 92 96 92 91 91 92 89 88 88 88 88 88 87 86 85 85 82 80 79 78
90 91 95 98 98 99 96 98 96 93 94 97 95 92 94 93 93 100 100 96 94 91 91 92 92 91 92 92 94 94 92 92 93 93 93 93 95 95 98 97 95 88 88 90 92 90 90 90 90 87 86 87 87 87 86 86 84 84 83 82 80 79 78
88 89 91 96 95 93 91 95 96 91 93 89 89 91 90 93 93 94 93 96 92 90 91 91 92 91 91 92 92 93 92 92 92 92 93 95 94 94 95 91 90 88 86 87 88 88 89 90 90 88 87 88 88 86 85 84 83 82 81 82 82 80 80
87 87 87 89 91 89 89 89 90 89 89 90 92 89 89 90 92 95 95 91 91 91 91 91 93 91 91 91 91 91 93 92 91 92 92 92 92 93 91 89 88 88 88 86 86 86 88 87 87 88 87 86 86 86 83 83 82 81 81 82 82 81 80
88 85 86 88 87 88 87 87 89 88 88 91 93 93 93 93 92 93 90 90 91 91 90 91 91 91 90 90 91 90 92 91 90 89 89 88 88 88 87 87 87 86 85 85 85 85 84 85 85 86 86 83 83 82 81 81 81 78 78 79 78 78 78
88 89 88 87 86 86 87 87 89 86 86 88 90 91 92 93 92 90 89 89 90 90 90 91 90 89 89 89 89 89 89 88 88 86 86 87 87 87 86 86 86 85 84 84 83 84 82 81 83 83 83 82 81 81 81 79 73 73 73 73 73 74 75
89 88 87 88 86 86 86 86 86 87 88 89 90 90 89 89 89 88 88 89 88 89 89 89 88 88 88 87 86 85 85 86 86 86 85 86 86 85 85 84 84 84 84 84 84 84 82 82 82 81 81 80 81 80 79 73 72 71 71 70 70 71 72
90 87 87 88 87 87 89 89 89 89 89 88 89 88 88 88 87 87 87 88 88 87 88 88 87 87 86 85 84 85 85 85 85 85 84 83 84 84 84 84 84 83 82 81 81 81 81 81 81 80 79 79 79 79 74 72 70 70 69 69 68 68 69
88 88 86 88 87 88 88 88 89 89 88 88 88 88 87 87 87 87 87 86 86 86 87 87 86 85 84 84 84 84 84 83 83 83 82 82 82 83 82 80 81 80 81 80 80 80 80 79 79 78 78 78 77 76 70 70 68 67 66 66 67 67 67
90 89 90 88 88 88 88 88 88 88 88 88 87 87 86 86 86 85 85 85 85 86 86 85 84 83 83 83 84 83 82 82 82 82 82 82 81 80 80 81 80 79 79 78 78 79 79 78 78 78 78 78 76 74 69 68 66 65 65 65 65 67 67
84 92 90 89 87 87 88 87 87 87 87 87 86 86 86 86 85 84 85 84 85 85 85 84 83 82 82 83 83 82 82 82 82 81 80 79 80 80 79 78 78 77 77 77 78 78 77 77 78 76 76 75 75 73 70 68 66 64 64 64 64 65 67
87 84 90 91 90 88 88 88 88 88 87 87 87 87 87 87 85 85 85 84 84 83 82 82 82 82 82 82 82 82 82 81 79 78 78 79 78 78 77 77 76 76 76 77 77 76 76 76 75 75 74 74 74 72 68 67 65 64 63 63 63 64 66
83 83 79 89 89 89 88 87 87 87 86 86 87 86 86 84 85 84 83 83 82 82 81 81 81 81 81 81 81 81 79 79 79 78 78 77 77 76 76 76 76 75 76 76 75 75 74 74 74 74 73 73 72 72 68 66 64 63 63 62 62 63 66
76 73 77 88 89 88 88 88 86 86 84 85 86 85 85 85 85 83 82 83 82 81 81 81 80 80 80 78 78 78 78 78 77 77 77 77 76 76 75 75 74 74 75 75 75 75 74 76 75 72 70 71 70 70 69 66 62 62 62 61 61 63 65
78 73 78 86 90 89 89 88 87 86 85 85 85 84 85 85 84 83 82 81 81 81 80 79 78 77 77 77 77 77 77 77 76 76 76 76 75 74 74 73 73 74 75 74 74 74 73 71 71 72 70 70 69 69 68 69 62 61 60 60 61 63 63
86 87 90 88 88 88 88 87 88 88 88 87 86 86 84 84 83 82 81 80 79 78 78 77 76 76 76 76 76 76 76 77 76 75 75 74 74 74 73 74 74 74 75 74 73 71 72 72 71 71 70 69 69 69 67 67 65 60 60 60 60 62 62
93 92 91 89 88 86 87 87 88 88 87 86 85 85 84 84 83 81 79 78 78 78 77 76 76 76 75 75 76 76 76 76 76 75 74 74 73 74 73 73 74 75 74 73 73 72 71 73 71 70 70 69 69 71 69 67 67 60 59 59 59 61 61
90 89 89 90 90 90 89 87 86 86 86 84 83 85 84 84 83 80 78 78 78 77 75 75 75 76 76 76 76 76 76 76 75 74 74 73 73 73 74 75 74 73 73 73 73 72 72 71 71 69 69 69 69 69 68 67 67 64 58 59 59 59 61
91 90 89 90 88 85 87 88 88 87 85 84 84 85 85 83 80 78 77 77 76 75 75 76 76 76 76 76 76 75 75 74 74 74 74 74 73 74 74 74 73 73 72 72 73 72 71 70 70 69 69 69 69 69 68 68 67 65 59 58 58 58 59
91 90 89 87 85 87 89 88 86 85 86 85 85 84 82 80 77 76 76 75 74 75 77 76 76 76 75 75 74 74 74 74 74 75 75 74 74 74 74 74 73 73 73 73 72 71 70 70 70 69 68 69 69 68 68 68 67 64 62 59 57 57 57
87 86 85 85 87 88 87 85 85 85 84 85 85 83 82 79 76 76 76 75 75 78 78 77 77 76 75 74 74 73 74 74 74 74 74 74 75 74 73 73 73 73 74 74 72 71 70 70 69 68 67 68 68 68 67 67 67 65 63 60 57 56 56
87 86 87 88 88 87 87 84 82 81 80 81 80 80 80 78 76 75 75 75 77 78 78 77 76 75 75 74 74 74 73 74 74 75 75 75 74 74 72 71 72 72 72 71 71 70 70 69 68 68 67 66 66 67 67 66 65 65 63 61 59 56 56
87 88 87 86 86 85 83 80 78 79 78 78 78 78 78 78 76 75 74 75 77 76 76 76 76 74 73 73 73 73 74 74 74 74 74 74 74 72 71 72 72 70 70 70 69 69 70 69 68 67 66 65 65 65 65 66 65 64 63 61 61 59 58
88 87 87 85 81 80 79 79 78 77 76 76 77 77 77 78 77 74 74 77 77 77 76 76 74 72 72 72 72 73 73 73 73 73 73 73 73 72 72 72 71 70 70 69 69 68 67 67 68 68 67 64 65 65 65 66 65 64 63 63 62 62 60
84 82 81 80 79 78 77 77 76 75 75 75 77 77 78 78 78 76 76 76 79 79 77 74 73 72 71 71 72 73 73 73 74 73 72 72 72 72 71 70 69 68 68 68 68 68 68 68 67 68 67 65 65 64 65 64 64 62 61 60 59 60 61
81 81 80 80 80 80 78 76 75 74 75 74 76 76 77 78 77 78 78 80 80 78 76 74 72 72 71 72 73 73 73 73 75 72 72 72 71 70 69 68 68 66 64 64 64 64 66 66 65 65 66 66 65 64 64 63 63 62 58 57 57 57 58
79 79 79 78 78 77 76 75 75 75 75 74 75 75 74 76 78 79 80 80 79 76 76 73 73 72 72 73 73 72 74 75 75 73 70 69 67 65 65 67 68 65 63 63 62 61 62 64 65 65 66 68 64 63 62 62 61 61 56 54 52 52 53
78 78 77 78 77 76 75 75 74 73 73 73 75 75 74 75 76 78 81 80 79 77 74 73 72 71 71 72 72 73 72 71 70 70 69 68 67 66 65 61 55 58 66 63 60 52 49 55 61 60 62 65 65 64 62 60 61 56 48 48 48 48 48
77 76 76 77 76 75 74 74 74 73 72 73 74 74 74 74 77 77 78 78 78 76 74 73 71 71 71 71 71 71 71 71 70 69 68 68 67 66 65 65 63 48 49 59 61 50 41 41 45 51 55 59 63 64 60 60 54 48 48 49 49 48 48
79 78 78 77 75 74 74 74 73 73 73 74 74 74 75 75 76 76 77 77 77 75 73 73 71 70 70 71 71 71 71 71 70 69 68 67 67 67 66 66 63 63 51 46 51 50 46 44 43 45 48 52 54 59 64 59 53 48 49 49 49 49 49
MSLP
1003.17 1002.96 1003.03 1003.09 1003.41 1003.64 1003.91 1004.16 1004.26 1004.49 1004.66 1004.84 1005.03 1005.05 1004.91 1004.90 1005.14 1005.38 1005.61 1006.11 1006.85 1007.49 1007.58 1007.72 1007.84 1007.97 1008.38 1008.55 1008.55 1008.59 1008.66 1008.84 1008.91 1009.17 1009.43 1009.52 1009.52 1009.61 1009.67 1009.46 1009.46 1009.40 1009.17 1009.20 1009.03 1009.17 1009.16 1009.05 1009.20 1009.28 1009.23 1009.32 1009.43 1009.29 1009.17 1009.23 1009.49 1009.47 1009.53 1009.61 1009.79 1009.99 1010.16
1003.61 1003.14 1002.82 1002.82 1003.09 1003.34 1003.41 1003.76 1004.03 1004.23 1004.53 1004.64 1004.84 1005.02 1004.88 1004.85 1004.96 1005.28 1005.58 1005.93 1006.47 1007.03 1007.28 1007.47 1007.76 1007.85 1008.09 1008.28 1008.23 1008.35 1008.53 1008.49 1008.47 1008.52 1008.59 1008.79 1008.90 1009.03 1009.08 1009.11 1009.05 1008.99 1008.82 1008.64 1008.66 1008.55 1008.64 1008.93 1008.79 1008.73 1009.08 1008.99 1008.91 1008.70 1008.70 1008.84 1008.96 1009.09 1009.22 1009.28 1009.55 1009.88 1010.08
1003.28 1002.99 1002.53 1002.58 1002.90 1003.08 1003.17 1003.43 1003.84 1004.03 1004.29 1004.47 1004.64 1004.91 1004.97 1004.91 1004.73 1005.08 1005.43 1005.76 1006.55 1006.82 1006.97 1007.22 1007.46 1007.59 1007.67 1007.93 1008.08 1008.16 1008.17 1008.20 1008.28 1008.40 1008.64 1008.66 1008.64 1008.66 1008.55 1008.67 1008.79 1008.93 1008.73 1008.41 1008.41 1008.38 1007.96 1007.99 1008.03 1008.17 1008.59 1008.72 1008.52 1008.49 1008.59 1008.70 1008.82 1008.97 1009.05 1009.11 1009.32 1009.70 1009.96
1002.99 1002.70 1002.23 1002.14 1002.38 1002.55 1002.72 1003.09 1003.70 1003.90 1003.93 1004.14 1004.43 1004.64 1004.85 1004.90 1004.52 1004.76 1005.02 1005.43 1006.16 1006.78 1007.14 1007.14 1007.35 1007.41 1007.46 1007.67 1007.85 1007.90 1007.85 1007.85 1007.90 1007.96 1008.02 1008.05 1008.26 1008.08 1008.16 1008.28 1008.46 1008.47 1008.43 1008.34 1007.91 1007.90 1007.82 1007.84 1008.05 1007.99 1007.99 1008.32 1008.53 1008.49 1008.55 1008.73 1008.79 1008.84 1008.90 1009.09 1009.28 1009.38 1009.64
1002.34 1002.02 1001.93 1002.17 1002.40 1002.64 1002.82 1003.08 1003.47 1003.82 1003.93 1003.88 1003.99 1004.16 1004.34 1004.46 1004.49 1004.58 1004.99 1005.11 1005.46 1006.46 1006.52 1006.70 1006.99 1007.08 1006.99 1007.02 1007.22 1007.23 1007.35 1007.34 1007.38 1007.40 1007.47 1007.47 1007.59 1007.76 1008.02 1008.11 1007.85 1007.73 1007.61 1007.38 1007.29 1007.38 1007.43 1007.53 1007.64 1007.96 1008.02 1008.11 1008.38 1008.41 1008.61 1008.66 1008.78 1008.84 1009.14 1009.32 1009.53 1009.47 1009.66
1002.16 1002.32 1002.38 1002.23 1002.16 1002.26 1002.47 1002.64 1002.96 1003.43 1003.79 1003.90 1003.88 1003.96 1004.02 1004.22 1004.41 1004.59 1004.88 1005.22 1005.43 1005.53 1005.96 1006.34 1006.78 1006.91 1007.14 1006.79 1006.73 1006.70 1006.64 1006.76 1006.76 1006.79 1007.03 1007.16 1007.34 1007.59 1007.72 1007.61 1007.49 1007.40 1007.35 1007.22 1006.99 1006.99 1007.05 1007.29 1007.61 1007.85 1007.99 1007.91 1008.08 1008.35 1008.52 1008.78 1008.88 1008.90 1008.93 1009.08 1009.23 1009.38 1009.55
1001.88 1002.11 1002.20 1002.03 1001.70 1001.82 1002.14 1002.34 1002.53 1002.88 1003.23 1003.43 1003.41 1003.46 1003.72 1003.93 1004.40 1004.47 1004.47 1005.17 1005.40 1005.73 1006.09 1006.43 1006.55 1006.70 1006.88 1006.73 1006.70 1006.59 1006.61 1006.38 1006.40 1006.73 1006.70 1006.90 1007.08 1007.52 1007.47 1007.38 1007.14 1006.91 1006.72 1006.70 1007.11 1007.38 1007.58 1007.49 1007.64 1007.88 1008.09 1008.29 1008.43 1008.70 1008.85 1008.97 1008.96 1008.79 1008.85 1009.03 1009.29 1009.64 1009.73
1001.40 1001.96 1001.72 1001.47 1001.40 1001.67 1002.03 1002.28 1002.38 1002.46 1002.85 1003.09 1003.47 1003.58 1003.93 1003.88 1004.08 1004.49 1004.59 1004.93 1005.23 1005.53 1005.99 1006.35 1006.53 1006.61 1006.70 1006.70 1006.66 1006.73 1006.78 1006.73 1006.47 1006.55 1006.84 1007.08 1007.17 1007.40 1007.28 1007.14 1007.02 1006.96 1007.05 1007.22 1007.23 1007.28 1007.61 1007.79 1007.97 1008.02 1008.32 1008.55 1008.61 1008.70 1008.76 1008.78 1008.84 1008.79 1008.84 1009.17 1009.52 1009.78 1009.72
1001.05 1001.38 1001.53 1001.64 1001.64 1001.55 1001.82 1001.97 1002.11 1002.41 1002.93 1003.41 1003.53 1003.49 1003.66 1003.84 1003.97 1004.43 1004.64 1004.88 1005.17 1005.64 1005.93 1005.99 1006.20 1006.23 1006.40 1006.66 1006.84 1006.88 1006.73 1006.72 1006.85 1006.88 1007.03 1007.22 1007.20 1007.29 1007.08 1007.08 1007.16 1007.02 1007.34 1007.34 1006.97 1007.09 1007.49 1007.85 1007.99 1008.32 1008.52 1008.67 1008.79 1008.88 1008.91 1008.88 1008.97 1008.99 1009.11 1009.73 1009.88 1009.99 1009.90
1001.34 1001.38 1001.17 1001.28 1001.14 1001.28 1001.66 1001.79 1002.16 1002.53 1003.11 1003.46 1003.55 1003.59 1003.72 1004.03 1004.05 1004.16 1004.38 1004.66 1005.09 1005.58 1005.73 1005.79 1005.97 1006.09 1006.34 1006.64 1006.78 1006.73 1006.79 1006.91 1006.91 1007.09 1007.28 1007.41 1007.28 1007.35 1007.23 1007.16 1007.32 1007.72 1007.70 1007.66 1007.49 1007.72 1007.67 1007.90 1008.22 1008.49 1008.73 1008.96 1009.05 1008.93 1008.90 1008.91 1009.08 1009.20 1009.40 1009.61 1009.88 1009.96 1009.93
1001.29 1001.28 1001.49 1001.35 1001.49 1001.58 1001.76 1002.11 1002.40 1002.85 1002.91 1003.41 1003.53 1003.55 1003.61 1004.02 1004.17 1004.17 1004.34 1004.46 1005.08 1005.41 1005.41 1005.64 1005.72 1006.09 1006.35 1006.55 1006.79 1006.72 1006.84 1007.02 1007.03 1007.32 1007.40 1007.40 1007.28 1007.46 1007.41 1007.78 1007.90 1007.99 1008.28 1008.28 1008.41 1008.32 1008.23 1008.17 1008.23 1008.64 1008.79 1008.96 1008.93 1009.02 1009.03 1009.16 1009.26 1009.52 1009.67 1009.66 1009.59 1009.70 1009.70
1001.41 1001.55 1001.85 1001.58 1001.46 1001.82 1002.28 1002.47 1002.53 1002.84 1003.16 1003.35 1003.46 1003.53 1003.73 1003.96 1004.14 1004.20 1004.40 1004.58 1004.79 1005.28 1005.49 1005.67 1005.67 1006.03 1006.41 1006.58 1006.84 1006.90 1006.90 1007.03 1007.20 1007.35 1007.43 1007.52 1007.61 1007.61 1007.79 1007.99 1008.22 1008.38 1008.43 1008.55 1008.84 1008.79 1008.66 1008.73 1008.79 1008.85 1009.02 1009.14 1009.14 1009.09 1009.26 1009.32 1009.41 1009.72 1009.72 1009.61 1009.52 1009.43 1009.47
1001.55 1001.85 1001.90 1001.79 1001.93 1002.09 1002.28 1002.70 1002.96 1002.96 1003.11 1003.46 1003.34 1003.55 1003.90 1004.03 1004.23 1004.55 1004.96 1005.08 1004.99 1005.11 1005.47 1005.67 1005.91 1006.17 1006.49 1006.64 1006.84 1007.03 1007.09 1007.14 1007.38 1007.46 1007.64 1007.79 1007.93 1007.96 1008.22 1008.38 1008.49 1008.72 1008.90 1008.84 1008.97 1009.16 1009.28 1009.14 1009.23 1009.17 1009.26 1009.38 1009.43 1009.61 1009.67 1009.72 1009.79 1010.03 1010.08 1009.99 1009.90 1009.79 1009.73
1001.49 1001.82 1001.96 1001.96 1002.29 1002.47 1002.79 1002.73 1002.79 1003.20 1003.26 1003.59 1003.64 1003.93 1004.16 1003.99 1004.26 1004.78 1005.05 1005.40 1005.32 1005.34 1005.59 1005.78 1006.08 1006.40 1006.64 1006.79 1007.03 1007.23 1007.32 1007.41 1007.58 1007.82 1007.88 1007.91 1008.09 1008.34 1008.47 1008.59 1008.73 1008.93 1008.97 1009.11 1009.41 1009.49 1009.67 1009.76 1009.66 1009.47 1009.58 1009.73 1009.85 1009.88 1009.85 1010.16 1010.67 1010.73 1010.73 1010.67 1010.59 1010.43 1010.26
1002.20 1002.34 1002.05 1002.34 1002.34 1002.22 1002.76 1003.08 1003.08 1003.32 1003.70 1003.79 1003.88 1004.28 1004.43 1004.47 1004.70 1004.88 1005.16 1005.32 1005.49 1005.59 1005.84 1005.88 1006.28 1006.64 1006.84 1007.05 1007.53 1007.78 1007.76 1007.78 1007.84 1007.91 1008.17 1008.29 1008.47 1008.72 1008.88 1008.99 1009.02 1009.11 1009.26 1009.41 1009.53 1009.61 1009.79 1009.82 1009.84 1009.99 1010.05 1010.05 1010.11 1010.14 1010.22 1010.91 1011.22 1011.41 1011.38 1011.28 1011.09 1010.93 1010.79
1001.93 1002.49 1002.46 1002.82 1002.32 1002.40 1002.64 1002.84 1003.08 1003.29 1003.67 1003.97 1003.97 1004.32 1004.61 1004.90 1005.11 1005.29 1005.59 1005.76 1005.76 1005.91 1005.97 1006.09 1006.55 1006.85 1007.17 1007.55 1007.79 1007.85 1007.90 1007.99 1008.14 1008.38 1008.52 1008.78 1008.97 1009.05 1009.14 1009.23 1009.28 1009.41 1009.67 1009.91 1009.93 1009.96 1009.91 1009.91 1009.99 1010.17 1010.34 1010.49 1010.43 1010.38 1010.93 1011.35 1011.67 1011.79 1011.78 1011.67 1011.59 1011.47 1011.28
1002.03 1002.34 1003.05 1002.53 1002.67 1002.84 1003.03 1002.90 1003.11 1003.29 1003.72 1003.91 1004.11 1004.43 1004.78 1005.08 1005.26 1005.43 1005.66 1005.88 1006.03 1006.26 1006.22 1006.32 1006.90 1007.26 1007.58 1007.91 1007.88 1007.97 1008.16 1008.41 1008.64 1008.79 1009.05 1009.20 1009.28 1009.35 1009.53 1009.76 1009.78 1009.96 1010.09 1010.22 1010.28 1010.32 1010.32 1010.35 1010.49 1010.55 1010.52 1010.53 1010.66 1010.73 1011.46 1011.76 1012.03 1012.03 1011.96 1011.93 1011.82 1011.67 1011.47
1002.32 1002.26 1002.26 1002.66 1002.67 1002.93 1003.11 1003.29 1003.40 1003.70 1003.91 1004.11 1004.35 1004.61 1004.96 1005.29 1005.47 1005.66 1006.08 1006.05 1006.29 1006.35 1006.35 1006.78 1007.23 1007.64 1007.88 1007.99 1008.14 1008.38 1008.67 1008.88 1009.08 1009.28 1009.41 1009.46 1009.72 1009.79 1009.90 1009.99 1010.26 1010.49 1010.58 1010.61 1010.64 1010.55 1010.52 1010.66 1010.67 1010.61 1010.61 1010.66 1010.76 1011.08 1011.73 1012.05 1012.26 1012.16 1012.11 1012.08 1011.99 1011.79 1011.53
1003.72 1001.90 1002.35 1002.46 1002.84 1003.11 1003.29 1003.49 1003.72 1003.85 1004.08 1004.32 1004.55 1004.90 1004.97 1005.08 1005.61 1006.03 1006.09 1006.34 1006.41 1006.41 1006.88 1007.35 1007.66 1007.99 1008.23 1008.34 1008.52 1008.78 1008.96 1009.08 1009.26 1009.53 1009.76 1010.02 1010.14 1010.23 1010.43 1010.64 1010.73 1010.84 1010.91 1010.96 1010.73 1010.67 1010.84 1010.84 1010.78 1010.93 1010.97 1010.99 1011.16 1011.38 1011.84 1012.20 1012.34 1012.28 1012.26 1012.22 1012.08 1011.84 1011.46
1002.43 1003.14 1002.43 1002.22 1002.52 1002.99 1003.20 1003.43 1003.66 1003.84 1004.05 1004.32 1004.58 1004.76 1004.97 1005.23 1005.73 1006.08 1006.16 1006.46 1006.66 1007.05 1007.49 1007.84 1008.17 1008.32 1008.55 1008.67 1008.88 1008.93 1009.03 1009.29 1009.76 1010.22 1010.38 1010.40 1010.52 1010.61 1010.79 1010.91 1011.05 1011.05 1011.02 1010.96 1010.88 1011.02 1011.08 1011.09 1011.23 1011.26 1011.35 1011.38 1011.41 1011.58 1012.09 1012.29 1012.49 1012.38 1012.34 1012.22 1012.03 1011.79 1011.47
1002.90 1003.05 1004.61 1002.46 1002.72 1002.85 1003.16 1003.41 1003.66 1004.05 1004.47 1004.70 1004.85 1005.08 1005.38 1005.91 1006.08 1006.40 1006.73 1006.91 1007.34 1007.58 1007.96 1008.28 1008.49 1008.72 1008.88 1009.09 1009.17 1009.35 1009.66 1009.97 1010.26 1010.55 1010.64 1010.67 1010.79 1010.93 1011.03 1011.11 1011.17 1011.29 1011.28 1011.22 1011.35 1011.41 1011.49 1011.53 1011.53 1011.52 1011.58 1011.70 1011.73 1011.76 1012.20 1012.53 1012.52 1012.40 1012.35 1012.35 1012.16 1011.85 1011.49
1003.91 1005.17 1005.85 1002.97 1002.55 1002.70 1003.02 1003.41 1003.82 1004.23 1004.70 1004.70 1005.09 1005.43 1005.78 1006.23 1006.26 1006.67 1007.09 1007.14 1007.58 1007.88 1008.11 1008.35 1008.70 1008.97 1009.16 1009.52 1009.72 1009.90 1010.02 1010.23 1010.53 1010.70 1010.84 1010.93 1011.05 1011.20 1011.35 1011.38 1011.55 1011.67 1011.47 1011.47 1011.49 1011.47 1011.46 1011.34 1011.41 1011.82 1012.11 1012.11 1012.16 1012.23 1012.26 1012.53 1012.53 1012.52 1012.49 1012.41 1012.20 1011.91 1011.64
1003.20 1005.11 1005.17 1003.29 1002.72 1002.99 1002.85 1002.99 1003.41 1004.02 1004.35 1004.79 1005.09 1005.53 1005.96 1006.02 1006.34 1006.76 1007.14 1007.53 1007.76 1007.96 1008.34 1008.66 1009.08 1009.34 1009.52 1009.76 1009.88 1010.02 1010.14 1010.34 1010.64 1010.90 1011.02 1011.14 1011.34 1011.58 1011.70 1011.82 1011.88 1011.85 1011.66 1011.72 1011.70 1011.78 1011.85 1012.05 1012.11 1012.05 1012.23 1012.38 1012.40 1012.43 1012.52 1012.43 1012.64 1012.61 1012.64 1012.59 1012.41 1012.08 1011.90
1002.17 1002.49 1002.66 1003.11 1003.17 1003.40 1003.55 1003.64 1003.72 1003.85 1003.99 1004.61 1005.14 1005.47 1005.73 1006.05 1006.46 1006.84 1007.35 1007.76 1008.02 1008.35 1008.67 1008.90 1009.29 1009.41 1009.61 1009.90 1009.99 1010.11 1010.28 1010.46 1010.72 1011.02 1011.20 1011.40 1011.66 1011.76 1011.91 1011.96 1011.91 1011.88 1011.72 1011.84 1012.03 1012.26 1012.22 1012.05 1012.23 1012.28 1012.35 1012.49 1012.53 1012.47 1012.64 1012.55 1012.66 1012.76 1012.79 1012.70 1012.55 1012.32 1012.11
1001.35 1001.66 1002.11 1002.82 1003.61 1004.08 1004.08 1004.03 1004.03 1004.14 1004.34 1004.61 1005.26 1005.49 1005.64 1006.03 1006.49 1007.08 1007.73 1008.03 1008.32 1008.47 1008.88 1009.23 1009.43 1009.67 1009.93 1010.11 1010.11 1010.22 1010.38 1010.55 1010.78 1011.09 1011.40 1011.66 1011.84 1011.96 1012.14 1012.16 1012.09 1011.90 1011.88 1012.05 1012.09 1012.22 1012.34 1012.28 1012.47 1012.59 1012.58 1012.58 1012.58 1012.47 1012.59 1012.67 1012.59 1012.76 1012.78 1012.76 1012.61 1012.41 1012.26
1001.53 1001.96 1002.35 1002.16 1002.67 1003.20 1003.55 1003.84 1004.32 1004.85 1005.16 1005.38 1005.52 1005.35 1005.70 1006.05 1006.64 1007.38 1007.84 1008.17 1008.32 1008.88 1009.35 1009.64 1009.82 1009.91 1010.05 1010.17 1010.29 1010.41 1010.58 1010.72 1010.97 1011.26 1011.61 1011.91 1012.03 1012.08 1012.09 1011.97 1011.97 1012.14 1012.17 1012.23 1012.26 1012.41 1012.43 1012.47 1012.58 1012.78 1012.82 1012.66 1012.66 1012.64 1012.61 1012.70 1012.61 1012.73 1012.84 1012.78 1012.61 1012.55 1012.35
1001.14 1001.46 1001.85 1002.17 1002.47 1002.99 1004.03 1004.23 1004.61 1005.22 1005.59 1005.72 1005.59 1005.64 1005.88 1006.35 1007.09 1007.70 1007.99 1008.32 1008.85 1009.40 1009.59 1009.61 1009.73 1009.99 1010.20 1010.35 1010.55 1010.76 1010.90 1011.08 1011.29 1011.55 1011.70 1011.82 1012.03 1012.08 1012.09 1012.11 1012.32 1012.29 1012.38 1012.43 1012.38 1012.41 1012.55 1012.66 1012.72 1012.78 1012.85 1012.79 1012.73 1012.73 1012.72 1012.70 1012.76 1012.84 1012.93 1012.85 1012.70 1012.47 1012.40
1001.08 1001.52 1001.72 1002.09 1002.70 1002.99 1003.47 1004.38 1005.05 1005.41 1005.72 1005.85 1005.99 1006.16 1006.41 1006.73 1007.38 1007.97 1008.52 1009.02 1009.55 1009.67 1009.53 1009.64 1009.85 1010.05 1010.32 1010.64 1010.90 1011.05 1011.23 1011.35 1011.46 1011.55 1011.76 1011.85 1011.96 1012.22 1012.34 1012.32 1012.34 1012.40 1012.43 1012.40 1012.40 1012.55 1012.72 1012.72 1012.76 1012.91 1012.99 1012.93 1012.88 1012.85 1012.90 1012.84 1012.91 1013.08 1013.03 1012.96 1012.67 1012.32 1012.08
1001.34 1001.78 1002.20 1002.66 1003.14 1003.49 1003.96 1004.72 1005.26 1005.70 1006.03 1006.09 1006.40 1006.70 1006.90 1007.03 1007.73 1008.40 1008.91 1009.59 1009.90 1009.78 1009.88 1009.97 1010.09 1010.29 1010.58 1010.90 1011.23 1011.43 1011.49 1011.55 1011.67 1011.84 1011.88 1011.99 1012.05 1012.32 1012.52 1012.47 1012.47 1012.43 1012.32 1012.32 1012.47 1012.67 1012.82 1012.82 1012.93 1013.11 1013.20 1013.16 1013.11 1013.09 1013.11 1013.09 1013.03 1013.20 1013.16 1012.93 1012.58 1012.26 1012.02
1001.41 1001.64 1001.93 1002.28 1002.82 1003.53 1004.05 1004.96 1005.40 1005.91 1006.40 1006.70 1006.84 1007.17 1007.55 1007.93 1008.47 1008.82 1009.29 1009.88 1009.84 1010.05 1010.34 1010.52 1010.67 1010.78 1010.99 1011.20 1011.38 1011.49 1011.66 1011.72 1011.72 1011.70 1011.79 1012.05 1012.23 1012.47 1012.76 1012.85 1012.82 1012.72 1012.61 1012.58 1012.64 1012.73 1012.88 1012.97 1013.20 1013.34 1013.49 1013.53 1013.52 1013.46 1013.41 1013.35 1013.34 1013.28 1013.23 1012.97 1012.64 1012.35 1012.03
1001.82 1001.78 1001.99 1002.59 1003.17 1003.46 1004.17 1005.22 1006.09 1006.40 1006.78 1006.99 1007.28 1007.49 1008.28 1008.73 1008.97 1009.34 1009.90 1010.09 1010.09 1010.52 1010.79 1011.03 1011.22 1011.41 1011.58 1011.64 1011.61 1011.66 1011.67 1011.70 1011.78 1011.85 1011.99 1012.23 1012.41 1012.84 1012.97 1012.97 1012.88 1013.11 1013.03 1012.99 1013.09 1013.03 1012.99 1013.14 1013.41 1013.59 1013.79 1013.84 1013.90 1013.85 1013.76 1013.61 1013.49 1013.40 1013.23 1013.03 1012.73 1012.41 1012.09
1002.49 1002.70 1002.78 1002.91 1003.52 1003.99 1004.26 1004.72 1005.52 1006.41 1007.17 1007.41 1007.17 1007.53 1008.53 1009.09 1009.40 1010.09 1010.43 1010.32 1010.49 1010.64 1010.88 1011.20 1011.67 1011.96 1011.99 1011.88 1011.82 1011.90 1011.91 1011.99 1012.03 1012.23 1012.55 1012.73 1012.79 1012.90 1012.90 1012.97 1013.11 1013.23 1013.28 1013.29 1013.38 1013.38 1013.58 1013.66 1013.64 1013.72 1013.88 1014.09 1014.09 1014.08 1013.99 1013.84 1013.72 1013.59 1013.41 1013.16 1012.91 1012.58 1012.17
1003.41 1003.90 1004.53 1004.96 1004.61 1004.22 1004.22 1004.28 1005.23 1006.20 1006.82 1007.47 1007.34 1007.55 1008.32 1009.02 1009.47 1009.99 1010.34 1010.66 1010.66 1010.76 1011.05 1011.58 1012.02 1012.29 1012.22 1012.11 1011.99 1011.97 1012.02 1012.14 1012.26 1012.47 1012.78 1012.91 1013.03 1013.11 1013.22 1013.35 1013.52 1013.61 1013.67 1013.73 1013.79 1013.85 1013.93 1013.99 1014.05 1013.93 1013.97 1014.16 1014.20 1014.20 1014.11 1014.05 1013.91 1013.78 1013.61 1013.43 1013.23 1012.90 1012.47
1004.22 1004.53 1004.70 1004.73 1004.93 1005.29 1005.53 1005.09 1005.22 1005.96 1006.53 1007.09 1007.23 1007.52 1008.02 1008.49 1008.99 1009.40 1009.84 1010.26 1010.66 1011.05 1011.43 1011.84 1012.17 1012.32 1012.28 1012.09 1011.93 1011.97 1012.02 1012.22 1012.29 1012.73 1012.99 1013.17 1013.35 1013.52 1013.67 1013.84 1013.96 1014.20 1014.43 1014.58 1014.61 1014.53 1014.47 1014.47 1014.53 1014.46 1014.29 1014.28 1014.32 1014.38 1014.34 1014.22 1014.05 1013.97 1013.99 1013.79 1013.64 1013.28 1012.84
1004.46 1004.78 1004.88 1005.08 1005.29 1005.72 1006.38 1006.29 1006.29 1006.58 1007.11 1007.67 1007.78 1007.96 1008.28 1008.46 1008.61 1008.82 1009.40 1010.08 1010.70 1011.23 1011.55 1011.90 1012.08 1012.09 1012.11 1011.99 1011.99 1012.17 1012.11 1012.09 1012.16 1012.53 1013.16 1013.67 1013.96 1014.17 1014.23 1014.20 1014.20 1014.43 1014.70 1014.82 1014.93 1015.03 1015.08 1014.88 1014.76 1014.72 1014.49 1014.34 1014.61 1014.67 1014.70 1014.49 1014.35 1014.08 1014.20 1014.35 1014.17 1013.78 1013.23
1004.59 1004.88 1005.02 1005.05 1005.38 1005.99 1006.64 1006.93 1006.99 1007.23 1007.66 1008.03 1008.23 1008.43 1008.58 1008.64 1008.72 1008.91 1009.38 1010.05 1010.66 1011.09 1011.64 1011.97 1012.14 1012.23 1012.22 1012.14 1012.23 1012.29 1012.52 1012.70 1012.88 1013.09 1013.46 1013.78 1014.14 1014.40 1014.55 1014.59 1014.61 1014.59 1014.64 1014.99 1015.17 1015.29 1015.35 1015.23 1015.29 1015.35 1015.11 1014.72 1014.67 1014.73 1014.82 1014.79 1014.47 1014.26 1014.02 1013.52 1013.22 1013.16 1012.99
1004.47 1004.79 1005.08 1005.20 1005.72 1006.40 1006.96 1007.34 1007.46 1007.78 1008.22 1008.43 1008.41 1008.58 1008.84 1009.03 1009.05 1009.34 1009.84 1010.35 1010.76 1011.22 1011.73 1011.96 1012.14 1012.20 1012.26 1012.35 1012.43 1012.52 1012.78 1012.97 1013.29 1013.53 1013.72 1013.90 1014.20 1014.46 1014.70 1014.90 1014.93 1015.05 1015.09 1015.03 1015.22 1015.40 1015.53 1015.64 1015.59 1015.47 1015.38 1015.23 1014.96 1014.67 1014.55 1014.43 1014.32 1014.05 1013.59 1013.22 1012.93 1012.70 1012.46
1003.93 1004.32 1004.76 1005.23 1005.88 1006.64 1007.20 1007.53 1007.78 1008.03 1008.46 1008.53 1008.70 1008.88 1008.97 1009.20 1009.46 1009.82 1010.22 1010.58 1010.90 1011.26 1011.73 1011.97 1012.17 1012.41 1012.53 1012.52 1012.53 1012.59 1012.79 1013.03 1013.29 1013.58 1013.84 1014.05 1014.20 1014.34 1014.49 1014.72 1015.08 1015.22 1015.32 1015.52 1015.49 1015.58 1015.67 1015.70 1015.64 1015.58 1015.43 1015.28 1015.17 1014.96 1014.53 1014.22 1013.96 1013.78 1013.49 1013.20 1012.93 1012.66 1012.43
Wind_Speed
16 15 17 16 15 16 15 14 13 12 11 12 14 16 15 13 11 10 9 14 14 14 12 11 9 8 10 9 10 8 9 8 8 9 8 7 7 6 6 9 9 8 9 9 7 8 9 4 1 3 5 6 7 9 6 4 5 7 7 7 6 6 5
17 15 15 16 15 16 16 15 12 11 11 11 12 12 12 14 12 13 10 11 16 14 15 14 10 8 11 10 10 8 7 7 7 5 7 6 7 6 7 8 8 5 5 4 4 5 3 10 9 8 8 9 10 8 9 9 8 8 7 7 6 5 5
18 16 15 15 15 14 14 18 15 12 12 13 14 13 12 10 13 10 10 11 14 15 14 14 12 12 10 10 8 9 10 10 8 9 9 7 5 7 8 6 5 4 7 4 3 5 6 9 11 8 6 4 5 2 2 2 3 4 4 4 4 3 4
16 17 16 16 15 12 13 15 15 15 13 14 13 14 14 10 12 10 9 10 12 17 14 12 11 12 12 10 11 9 11 10 9 10 10 7 7 6 4 7 7 7 8 8 8 7 10 2 6 3 3 2 3 3 3 3 4 4 7 7 4 5 6
18 16 13 14 16 14 12 11 15 12 13 14 12 12 14 14 12 10 9 9 10 16 15 13 11 10 9 11 9 10 10 11 11 10 8 5 4 5 7 9 8 6 7 8 9 10 9 5 2 4 4 4 4 4 4 6 6 4 3 2 3 3 1
17 14 11 12 15 15 15 13 16 16 13 14 14 15 14 14 12 14 12 6 7 9 10 10 10 9 8 9 10 11 11 10 7 5 4 6 6 5 8 10 10 10 10 11 9 7 4 4 1 2 3 5 5 2 2 2 3 4 6 4 5 2 4
14 14 12 12 13 13 15 14 15 16 15 13 12 10 10 11 14 14 11 10 8 10 10 10 8 8 7 5 5 5 7 8 5 4 2 4 5 4 8 8 9 7 7 3 2 7 5 2 1 3 1 1 2 1 2 2 3 3 2 3 3 5 3
13 10 10 10 11 13 13 12 15 14 14 11 10 11 11 11 11 14 7 12 10 8 7 11 9 7 6 5 4 5 4 5 6 3 2 3 5 7 8 7 5 5 5 5 2 2 2 1 1 2 2 1 1 2 3 2 3 3 2 2 4 2 1
15 14 16 16 14 14 12 12 10 12 12 11 11 10 11 8 9 12 7 10 9 8 7 8 9 7 6 5 5 5 5 4 3 1 2 2 3 6 7 4 4 3 6 7 8 4 4 5 3 5 4 3 2 2 3 3 4 6 4 3 4 2 3
13 11 13 15 12 12 10 11 10 8 12 11 9 7 10 8 5 11 11 9 9 10 9 7 6 8 7 7 8 7 5 4 2 2 2 2 2 3 4 6 3 8 6 7 6 5 3 5 4 3 3 3 3 3 3 2 4 4 5 3 1 0 3
11 10 10 15 13 11 9 9 11 10 13 8 6 5 10 10 5 6 7 9 11 9 9 7 5 6 6 6 6 5 4 3 2 2 2 2 1 1 1 5 6 6 8 6 7 7 5 2 2 1 2 4 4 6 4 3 3 4 4 3 2 3 3
10 10 6 6 7 10 13 10 7 8 10 11 9 4 7 7 5 3 4 8 10 9 7 6 4 5 5 4 4 3 3 4 3 1 1 1 1 2 7 5 4 3 3 5 4 4 3 4 5 6 7 8 7 7 8 7 5 3 4 5 6 4 4
10 9 7 9 5 9 10 12 8 9 8 5 10 3 6 8 8 5 8 8 8 7 6 6 5 5 4 4 3 2 2 3 4 4 4 5 7 6 5 5 5 6 5 5 5 4 5 4 3 2 6 7 7 8 8 7 8 9 9 9 9 9 9
15 10 11 7 7 10 9 10 8 9 7 4 7 9 4 7 7 7 8 8 7 7 6 5 5 4 4 3 4 3 4 6 6 6 6 5 5 5 5 3 5 5 6 6 6 5 7 7 7 6 6 6 5 6 4 7 10 9 9 9 9 9 8
16 11 9 6 9 8 8 10 8 12 11 9 9 12 9 7 8 8 8 7 7 6 6 6 6 5 5 6 7 7 6 6 6 5 5 4 4 4 5 5 4 4 3 4 4 5 6 5 6 6 5 5 4 4 6 10 9 8 9 8 9 9 9
17 13 10 9 9 7 7 11 11 15 14 11 12 11 10 8 8 8 8 8 7 7 7 6 6 6 7 7 7 6 6 6 5 6 6 6 4 4 4 4 4 5 6 6 5 5 5 5 6 5 5 4 5 5 9 8 7 11 16 14 9 8 8
12 17 19 13 14 14 10 12 11 12 12 12 11 12 10 9 9 9 9 8 9 8 7 7 8 7 8 7 7 6 6 6 6 6 6 6 5 4 6 7 6 6 6 5 5 4 4 4 4 4 4 4 4 5 9 8 7 14 13 13 16 10 8
10 14 15 13 13 13 13 12 13 12 12 12 12 12 11 10 10 10 10 9 9 8 8 8 8 8 8 7 7 7 7 7 6 5 5 4 6 8 7 5 6 5 5 5 5 5 4 4 4 3 5 5 7 7 8 8 10 12 14 14 14 15 9
11 13 17 15 14 14 14 13 13 13 13 12 11 11 12 12 11 10 10 10 8 8 9 9 9 8 8 7 7 8 6 6 5 6 7 7 6 5 5 6 5 5 5 5 5 4 4 4 5 7 6 7 6 7 8 8 11 12 13 12 13 14 13
7 1 10 16 15 15 13 12 11 11 12 12 13 13 12 11 11 10 9 10 9 10 9 9 9 8 8 8 7 5 5 8 9 7 6 6 6 6 5 6 5 6 5 4 4 4 5 7 7 7 6 6 6 6 8 7 9 9 12 14 16 17 14
4 3 9 12 16 15 13 13 13 14 14 12 13 13 12 11 11 11 11 10 11 10 10 9 9 9 8 7 7 8 8 7 6 6 6 6 6 5 5 5 5 5 4 5 6 6 6 6 6 5 8 8 8 6 7 6 10 13 14 14 13 15 13
11 12 12 8 14 15 15 16 16 15 13 12 13 13 14 14 13 12 11 11 11 10 10 9 10 9 9 9 8 7 7 7 6 6 6 6 6 6 5 5 6 6 5 5 5 5 4 3 5 8 8 8 8 8 7 6 11 12 12 14 14 17 10
14 11 11 5 10 13 15 16 18 17 15 14 14 14 14 14 14 14 14 13 12 10 10 10 10 10 9 9 8 8 7 7 7 7 6 5 6 6 6 6 6 5 4 4 4 5 7 8 8 6 7 8 7 7 7 6 9 12 12 12 14 12 9
17 15 11 12 11 13 14 14 16 17 17 19 18 16 14 14 12 12 12 12 11 11 11 10 11 10 9 9 8 8 7 7 6 6 6 6 6 6 6 5 3 3 3 5 7 8 7 6 7 7 7 8 8 8 7 7 8 11 10 13 14 14 10
19 18 18 16 14 14 15 14 15 17 18 19 20 17 16 15 15 14 12 11 11 11 11 11 10 9 9 9 8 8 7 6 6 6 7 6 6 5 5 4 3 3 6 6 5 6 6 6 6 6 6 6 6 12 9 6 6 10 12 13 14 12 8
19 19 18 19 17 14 14 15 15 16 16 17 17 17 16 15 14 13 12 12 11 11 11 10 10 9 8 8 8 7 7 6 6 7 7 6 5 4 3 3 4 6 4 5 4 4 4 5 5 6 6 5 5 6 7 7 7 9 13 14 15 13 9
17 17 19 19 20 19 15 14 14 15 16 14 14 14 14 13 13 12 11 12 11 12 11 10 9 8 8 7 8 7 7 7 7 6 6 5 5 4 4 4 4 4 5 4 3 4 5 6 5 5 5 5 5 6 6 8 9 10 14 15 14 14 9
20 18 17 18 17 16 17 15 15 16 15 12 12 12 12 13 13 12 12 11 11 11 10 9 9 8 8 8 7 8 7 7 6 6 5 4 4 4 4 5 4 3 4 2 3 5 6 4 5 5 5 5 6 7 7 10 14 9 12 13 14 14 13
22 23 21 18 16 14 16 16 16 15 14 13 12 11 11 14 15 12 11 12 11 9 9 9 9 9 8 8 8 7 7 6 7 6 5 4 4 4 4 5 5 4 2 3 5 6 5 5 6 6 6 6 6 6 7 8 9 14 12 12 13 15 15
19 20 20 20 21 20 18 16 15 15 13 12 12 12 11 11 12 11 12 12 9 9 8 8 8 8 9 8 8 7 7 6 6 5 5 5 4 5 6 5 4 4 5 6 4 4 4 6 7 6 6 6 7 7 7 7 7 10 13 11 14 16 16
19 20 21 22 20 18 18 18 17 16 16 14 15 13 11 9 11 13 13 10 8 8 7 7 7 8 8 8 7 7 6 5 5 5 6 5 4 5 4 4 4 5 5 6 7 7 5 7 7 6 7 6 6 7 6 6 7 7 9 13 14 15 15
13 14 16 18 18 18 19 20 19 18 17 15 15 15 11 10 11 12 10 8 7 7 6 7 7 7 7 6 6 7 6 5 6 8 7 5 5 5 4 5 5 5 5 6 6 6 7 7 5 5 6 5 5 6 6 6 6 7 7 8 10 10 13
15 14 13 13 14 16 18 20 19 19 18 16 14 14 13 12 10 10 8 7 6 7 6 7 7 7 7 7 7 7 6 6 5 7 6 5 6 6 6 6 6 7 7 6 5 5 6 6 5 5 4 5 5 5 5 5 5 6 6 6 6 7 8
14 14 14 14 11 10 9 14 18 19 18 16 14 12 13 12 12 11 9 8 8 7 7 7 7 7 7 7 5 5 5 6 10 10 6 7 6 6 7 7 7 7 7 6 6 6 6 5 5 5 5 5 6 5 5 6 5 5 6 7 7 7 7
14 14 13 13 13 11 10 12 15 16 15 12 10 11 10 10 11 10 10 8 8 7 7 7 8 7 8 5 4 4 4 4 4 6 8 8 8 8 7 6 6 7 6 6 5 4 4 4 4 5 5 5 5 5 5 5 6 7 5 5 6 6 7
15 16 16 15 15 16 14 14 15 15 13 11 9 8 8 9 9 8 9 8 7 7 6 7 8 8 6 5 5 4 6 6 7 7 7 7 7 6 6 10 10 7 5 4 4 6 5 5 4 4 5 4 3 3 3 3 5 10 13 12 11 8 7
16 15 15 16 17 16 15 14 15 14 13 10 9 10 9 7 8 8 8 6 6 6 6 6 6 6 6 5 4 6 6 6 6 6 6 7 7 6 6 5 6 9 10 7 5 2 2 3 3 5 5 4 4 1 5 4 7 10 13 15 15 15 16
16 17 17 15 15 15 15 15 14 14 14 11 10 10 9 9 9 8 8 6 5 7 6 6 6 6 5 4 4 7 8 6 7 7 7 7 6 6 6 5 5 3 3 4 3 4 3 4 6 8 7 5 3 4 4 7 11 13 14 15 16 16 16
Wind_Direction
199 193 182 189 184 189 181 184 188 185 187 184 186 199 197 193 183 182 197 157 162 165 169 181 189 177 184 194 201 202 205 208 207 208 207 217 217 233 235 235 235 222 237 246 233 204 208 214 212 276 267 233 226 215 214 218 220 221 229 234 229 225 240
192 198 188 186 186 186 181 177 182 184 189 188 186 195 203 196 187 188 188 160 165 163 175 180 188 181 181 194 201 203 211 211 214 212 219 201 196 209 233 252 252 259 274 269 277 280 163 189 205 212 226 234 233 218 215 214 217 220 229 230 215 197 213
188 197 194 182 186 188 180 176 179 189 187 194 190 194 203 201 192 190 174 171 162 167 175 181 183 188 186 191 205 196 203 217 219 221 228 238 217 196 208 226 237 272 284 303 309 289 254 215 202 188 198 250 279 311 299 239 193 199 258 252 200 199 220
188 193 190 178 183 181 180 170 175 187 193 193 194 193 199 205 204 185 186 181 158 169 174 179 177 189 191 193 202 206 207 209 219 224 223 212 224 239 238 205 203 217 224 229 246 244 262 316 117 164 187 195 229 261 290 301 292 251 233 239 220 231 232
187 189 184 173 182 176 182 169 169 181 191 193 192 191 197 203 212 186 195 182 173 165 179 170 173 192 199 197 205 206 212 218 211 212 219 228 206 197 227 260 261 243 218 224 210 219 226 226 237 158 185 186 192 205 221 245 255 278 277 249 244 195 183
182 176 185 186 183 179 178 172 171 178 188 195 195 193 198 197 205 209 184 184 172 178 161 161 167 186 206 210 212 214 210 214 219 215 197 200 208 220 246 243 233 225 239 247 255 265 187 140 133 274 248 224 214 201 247 278 313 287 280 266 255 115 119
175 173 184 188 186 167 170 171 176 177 185 193 197 192 196 196 192 218 184 177 173 187 160 167 175 185 197 220 235 255 272 246 198 185 238 164 142 203 235 258 271 284 291 332 2 49 16 14 119 239 244 16 352 266 216 215 249 274 300 311 83 112 138
163 173 171 191 178 168 175 178 182 179 177 190 196 191 194 201 182 208 196 169 177 184 158 169 183 184 190 201 226 233 245 283 315 318 120 163 190 215 242 259 286 335 338 307 102 107 79 64 15 329 71 316 237 292 297 261 252 295 317 337 85 73 95
163 174 175 176 185 173 178 172 178 169 170 189 201 196 183 213 181 194 197 161 167 165 165 168 176 177 177 189 201 216 233 240 232 322 324 254 217 238 246 230 268 318 340 324 276 70 52 41 16 42 30 12 339 289 297 332 7 330 352 14 81 126 190
159 156 161 169 187 179 167 169 171 156 163 185 193 192 166 198 207 184 194 172 160 166 171 167 163 171 174 188 205 213 215 208 186 205 246 263 260 256 270 316 2 40 29 13 27 20 48 40 32 42 40 344 317 307 290 348 42 12 16 27 89 312 260
149 151 162 177 187 161 144 163 177 162 161 176 208 184 168 181 185 184 169 164 157 162 163 175 159 156 177 188 209 206 193 181 181 197 250 277 307 249 172 69 45 49 44 25 31 24 360 10 32 339 270 296 336 356 360 15 2 7 337 295 262 268 290
157 166 162 202 161 144 154 160 188 154 156 165 203 175 155 152 149 165 126 132 143 144 151 157 162 156 169 183 192 206 193 151 160 187 62 54 61 6 51 66 73 51 69 60 42 19 13 15 13 349 354 9 354 356 0 358 13 3 327 322 314 303 287
164 163 179 195 154 134 138 161 169 147 133 153 170 201 147 150 152 131 114 123 125 132 141 139 154 148 161 161 164 136 197 117 80 73 86 52 46 51 65 41 54 50 35 32 20 5 16 10 20 27 5 19 17 7 7 356 12 15 8 2 4 2 357
158 170 174 188 137 140 140 159 155 136 158 191 159 171 168 141 129 117 119 119 121 121 126 134 132 134 134 129 112 105 78 81 81 60 42 62 58 50 51 43 50 39 35 41 13 30 37 22 12 26 31 19 9 4 342 34 42 26 18 14 10 2 355
154 170 161 184 157 143 149 174 168 158 175 182 148 142 134 129 116 115 111 114 120 123 125 119 122 127 125 109 94 86 83 74 79 86 89 73 60 63 61 52 57 69 46 33 25 28 33 30 26 25 16 20 358 354 32 60 43 35 24 15 10 3 357
152 151 168 188 159 149 173 156 145 150 155 146 141 132 135 131 127 125 124 125 121 117 115 121 124 119 108 104 98 96 89 86 86 79 65 65 81 73 65 51 37 44 52 38 42 30 16 10 22 16 20 354 19 9 68 58 53 40 41 34 20 7 353
160 154 167 168 157 167 169 143 145 141 139 142 139 138 136 133 129 127 123 120 119 119 120 117 108 102 108 105 102 89 88 87 77 72 69 61 57 80 67 39 37 38 37 43 36 27 22 38 19 23 12 6 13 36 74 59 43 46 40 30 25 9 350
174 154 151 148 148 146 147 149 146 146 146 141 138 140 138 137 133 127 125 125 124 122 116 109 111 111 104 106 105 103 92 83 86 86 89 82 48 35 42 59 50 47 42 36 27 32 21 35 21 9 12 15 9 57 80 67 46 45 38 25 18 4 348
198 168 156 155 151 150 153 150 150 147 144 141 140 139 139 135 130 126 125 123 117 115 110 110 106 101 102 104 106 101 107 122 99 74 64 56 58 61 61 55 52 47 40 26 23 27 20 13 17 30 25 23 11 58 77 66 44 45 36 24 11 359 352
129 251 170 160 155 153 148 145 143 143 138 135 137 137 130 129 121 117 113 112 107 104 105 108 109 108 106 97 84 87 85 64 69 72 68 72 70 69 58 55 51 49 29 15 14 34 16 25 25 25 34 28 19 51 76 59 43 50 36 22 11 0 350
98 135 229 169 154 150 145 141 135 132 132 130 132 127 117 111 114 111 107 105 106 106 109 107 103 99 93 88 86 78 70 83 87 81 74 68 71 66 57 53 47 47 24 24 25 23 30 26 27 29 34 26 24 20 77 52 48 41 34 20 5 354 352
64 18 287 180 151 140 140 136 133 130 118 116 119 116 122 125 123 118 111 113 111 114 111 108 107 100 95 90 89 87 87 86 84 76 75 74 65 58 50 50 45 29 20 30 34 36 12 17 46 49 45 30 23 18 16 73 50 44 33 23 7 358 351
120 150 242 111 117 130 129 129 130 125 125 128 125 124 127 124 125 121 120 120 117 111 106 102 100 100 97 93 89 87 83 83 83 82 76 68 65 55 51 43 35 42 357 23 50 39 29 42 35 35 45 32 23 16 6 26 52 46 37 22 9 2 352
146 157 129 114 109 112 119 123 130 135 132 129 129 128 125 125 125 121 119 116 115 114 111 108 106 102 99 97 93 88 86 82 81 84 75 66 59 57 59 57 49 34 23 8 46 46 24 22 36 28 34 25 21 8 18 4 61 52 41 22 20 8 358
135 133 130 124 127 130 132 134 130 127 126 127 128 131 130 127 123 119 117 117 116 111 107 103 100 99 99 98 95 92 89 87 88 79 69 61 61 63 62 45 53 46 45 35 45 46 45 18 32 32 30 31 17 11 11 8 28 58 34 22 18 13 351
135 134 136 133 135 140 131 120 122 125 125 125 124 127 125 124 119 116 115 111 105 100 97 97 98 99 98 96 94 93 89 85 80 77 83 86 81 70 68 71 44 55 54 49 41 50 49 37 42 41 34 21 21 19 15 18 11 41 31 19 10 0 352
131 134 134 133 125 122 131 132 128 127 123 120 123 123 119 116 114 109 102 101 99 100 102 104 107 106 102 100 97 92 87 78 77 86 85 85 82 60 62 72 72 49 45 51 49 67 64 55 56 44 41 28 29 23 28 20 20 31 31 14 358 346 346
132 126 118 119 130 139 133 129 127 123 116 114 111 110 112 109 100 96 96 97 100 105 108 110 109 105 103 99 95 95 96 99 101 90 86 90 98 102 88 68 72 69 77 60 43 60 62 57 54 56 44 41 34 28 33 25 41 28 18 7 349 336 332
135 133 132 135 130 119 123 126 124 114 109 106 102 99 99 97 96 97 98 98 101 107 111 112 110 107 103 101 101 106 105 99 98 103 103 93 89 95 70 51 43 45 52 70 75 58 58 47 56 49 35 38 32 33 32 23 25 30 15 360 339 334 333
130 130 133 130 127 128 125 113 104 96 90 88 84 80 78 86 93 96 97 97 100 100 102 103 104 105 106 107 110 108 110 119 118 114 110 87 74 63 62 76 65 31 16 27 66 111 75 65 58 43 35 27 28 31 27 26 20 20 15 354 343 340 337
136 137 132 130 131 122 113 108 103 99 94 88 84 80 76 76 90 93 92 93 99 108 113 112 109 105 108 114 115 111 105 99 102 90 72 86 89 87 84 74 80 70 46 30 17 14 42 75 58 46 39 25 26 22 24 21 12 8 4 359 351 339 336
124 119 122 118 114 116 117 112 105 98 94 92 93 90 86 80 81 87 93 104 112 121 117 113 108 111 118 115 108 107 100 102 92 85 90 89 70 75 64 73 70 71 72 59 38 28 30 42 46 48 46 40 26 22 20 16 9 0 351 347 338 332 332
112 105 101 103 111 121 122 118 112 111 109 104 98 100 101 100 97 98 106 118 127 126 118 111 114 121 123 123 128 129 135 115 102 95 87 81 77 64 66 60 48 43 41 45 44 50 41 41 32 33 47 40 28 20 17 15 10 355 342 342 333 332 326
116 113 112 113 106 91 89 105 114 117 117 117 119 117 119 123 126 133 137 135 129 125 127 126 134 138 135 137 142 141 139 138 134 127 112 81 71 80 83 72 64 60 52 38 25 25 36 41 25 18 17 30 18 12 9 6 5 1 347 331 333 323 318
115 115 113 103 94 92 95 99 99 100 102 103 105 112 120 126 130 131 125 129 132 143 149 135 139 130 131 129 116 106 130 140 107 100 99 91 78 53 38 54 71 80 71 49 42 28 19 9 28 12 359 37 21 12 13 0 351 342 323 291 275 288 318
117 112 105 99 96 96 93 90 95 96 97 99 105 104 106 107 106 114 127 128 142 147 138 140 138 134 132 133 134 132 87 61 68 75 89 101 96 86 73 52 53 46 74 82 55 53 31 25 52 353 339 355 55 40 22 354 321 306 315 332 350 347 323
123 120 118 117 112 109 108 106 103 102 102 102 102 102 104 104 109 108 112 125 131 134 132 139 140 137 131 137 142 118 116 114 104 105 106 104 108 105 102 105 61 36 37 55 93 64 21 6 326 321 341 349 353 309 205 279 311 333 348 356 356 357 355
123 119 117 113 112 115 116 116 114 112 111 112 111 112 112 107 102 105 120 120 130 126 142 146 138 134 133 143 127 135 138 129 122 121 120 126 138 148 146 136 129 116 40 44 19 0 335 321 304 296 290 299 307 318 319 331 353 350 353 356 358 356 358